Change the Weather History Date:

Friday, November 29, 2013

  Actual Average Record
Temperature  
Mean Temperature 24 °F -  
Max Temperature 32 °F 42 °F 67 °F (1973)
Min Temperature 15 °F 29 °F 8 °F (1985)
Degree Days  
Heating Degree Days 42    
Moisture  
Dew Point 23 °F    
Average Humidity 90    
Maximum Humidity 96    
Minimum Humidity 84    
Precipitation  
Precipitation 0.00 in - - ()
Sea Level Pressure  
Sea Level Pressure 30.30 in    
Wind  
Wind Speed 3 mph (ENE)    
Max Wind Speed 10 mph    
Max Gust Speed -    
Visibility 2 miles    
Events Fog , Rain    
Averages and records for this station are not official NWS values.
T = Trace of Precipitation, MM = Missing Value Source: NWS Daily Summary

Daily Weather History Graph

Daily Weather History Graph

Search for Another Location

Airport or City:

Trip Planner

Search our weather history database for the weather conditions in past years. The results will help you decide how hot, cold, wet, or windy it might be!

Date:

Astronomy

Nov. 29, 2013 Rise Set
Actual Time 7:15 AM PST 4:14 PM PST
Civil Twilight 6:42 AM PST 4:48 PM PST
Nautical Twilight 6:05 AM PST 5:25 PM PST
Astronomical Twilight 5:29 AM PST 6:01 PM PST
Moon 3:16 AM PST (11/29) 2:11 PM PST (11/29)
Length of Visible Light 10h 06m
Length of Day
8h 58m
Waning Crescent, 13% of the Moon is Illuminated
Nov 29
Waning Crescent
Dec 2
New
Dec 9
First Quarter
Dec 17
Full
Dec 25
Last Quarter

Hourly Weather History & Observations

Time (PST) Temp. Windchill Dew Point Humidity Pressure Visibility Wind Dir Wind Speed Gust Speed Precip Events Conditions
12:01 AM 18.0 °F 12.7 °F 15.1 °F 88% 30.26 in 2.5 mi SW 3.5 mph - N/A   Scattered Clouds
12:13 AM 21.0 °F - 18.0 °F 88% 30.26 in 3.0 mi Calm Calm - N/A   Clear
12:46 AM 16.0 °F - 12.9 °F 88% 30.26 in 2.0 mi Calm Calm - N/A   Scattered Clouds
12:51 AM 15.8 °F - 12.2 °F 86% 30.26 in 1.0 mi Calm Calm - N/A   Mist
12:53 AM 16.0 °F - 12.0 °F 84% 30.28 in 0.5 mi Calm Calm - N/A Fog Light Freezing Fog
1:42 AM 17.1 °F 8.7 °F 12.9 °F 84% 30.27 in 1.2 mi SSE 5.8 mph - N/A   Scattered Clouds
1:47 AM 17.6 °F 10.7 °F 14.0 °F 86% 30.28 in 3.0 mi SSE 4.6 mph - N/A   Partly Cloudy
1:53 AM 18.0 °F 11.1 °F 15.1 °F 88% 30.31 in 3.0 mi SE 4.6 mph - N/A   Partly Cloudy
2:53 AM 16.0 °F 10.4 °F 12.0 °F 84% 30.31 in 4.0 mi ESE 3.5 mph - N/A   Clear
3:03 AM 16.0 °F 10.4 °F 12.0 °F 84% 30.29 in 3.0 mi ESE 3.5 mph - N/A   Partly Cloudy
3:20 AM 17.1 °F 10.0 °F 12.9 °F 84% 30.29 in 3.0 mi East 4.6 mph - N/A   Mostly Cloudy
3:25 AM 18.0 °F 9.8 °F 15.1 °F 88% 30.29 in 1.2 mi East 5.8 mph - N/A   Mostly Cloudy
3:33 AM 18.0 °F 9.8 °F 15.1 °F 88% 30.28 in 0.2 mi East 5.8 mph - N/A Fog Light Freezing Fog
3:53 AM 23.0 °F 17.0 °F 21.0 °F 92% 30.30 in 0.2 mi East 4.6 mph - N/A Fog Light Freezing Fog
4:53 AM 24.1 °F - 21.9 °F 91% 30.30 in 0.2 mi Calm Calm - N/A Fog Light Freezing Fog
5:53 AM 24.1 °F 19.7 °F 21.0 °F 88% 30.30 in 0.2 mi South 3.5 mph - N/A Fog Light Freezing Fog
6:53 AM 21.9 °F 17.2 °F 19.0 °F 89% 30.32 in 0.2 mi SSW 3.5 mph - N/A Fog Light Freezing Fog
7:53 AM 24.1 °F - 21.0 °F 88% 30.33 in 0.2 mi Calm Calm - N/A Fog Light Freezing Fog
8:53 AM 24.1 °F - 21.0 °F 88% 30.33 in 0.2 mi Calm Calm - N/A Fog Light Freezing Fog
9:53 AM 27.0 °F 23.0 °F 25.0 °F 92% 30.34 in 0.2 mi NE 3.5 mph - N/A Fog Light Freezing Fog
10:53 AM 28.0 °F - 26.1 °F 92% 30.33 in 0.2 mi Calm Calm - N/A Fog Light Freezing Fog
11:53 AM 28.9 °F 23.9 °F 26.1 °F 89% 30.31 in 0.8 mi North 4.6 mph - N/A   Overcast
12:43 PM 30.0 °F - 28.0 °F 92% 30.27 in 1.2 mi Calm Calm - N/A   Overcast
12:53 PM 30.0 °F - 28.0 °F 92% 30.29 in 1.8 mi Calm Calm - N/A   Overcast
1:31 PM 30.9 °F - 28.0 °F 89% 30.25 in 2.0 mi Calm Calm - N/A   Scattered Clouds
1:53 PM 30.9 °F - 28.0 °F 89% 30.28 in 2.0 mi Calm Calm - N/A   Mostly Cloudy
2:04 PM 30.9 °F 26.2 °F 28.0 °F 89% 30.26 in 1.8 mi North 4.6 mph - 0.00 in Rain Light Freezing Rain
2:53 PM 32.0 °F - 28.9 °F 88% 30.28 in 1.5 mi Calm Calm - 0.00 in Rain Light Freezing Rain
3:17 PM 32.0 °F - 30.0 °F 92% 30.27 in 1.8 mi Calm Calm - 0.00 in   Overcast
3:53 PM 32.0 °F - 28.9 °F 88% 30.28 in 2.0 mi Calm Calm - 0.00 in   Overcast
4:17 PM 32.0 °F 27.5 °F 30.0 °F 92% 30.27 in 1.8 mi NNW 4.6 mph - N/A   Overcast
4:24 PM 32.0 °F 26.4 °F 30.0 °F 92% 30.27 in 1.8 mi NNW 5.8 mph - N/A   Overcast
4:33 PM 32.0 °F 28.7 °F 30.0 °F 92% 30.27 in 1.5 mi North 3.5 mph - N/A   Overcast
4:53 PM 32.0 °F 27.5 °F 30.0 °F 92% 30.29 in 2.0 mi NNE 4.6 mph - N/A   Overcast
5:18 PM 30.9 °F 27.5 °F 28.9 °F 92% 30.27 in 3.0 mi NNE 3.5 mph - N/A   Mostly Cloudy
5:53 PM 30.9 °F 27.5 °F 28.0 °F 89% 30.31 in 3.0 mi North 3.5 mph - N/A   Mostly Cloudy
6:50 PM 28.4 °F 21.2 °F 26.6 °F 93% 30.29 in 2.5 mi NE 6.9 mph - N/A   Scattered Clouds
6:53 PM 28.0 °F 20.8 °F 26.1 °F 92% 30.32 in 2.5 mi NE 6.9 mph - N/A   Mostly Cloudy
7:02 PM 30.0 °F 23.2 °F 28.0 °F 92% 30.30 in 2.5 mi NNE 6.9 mph - N/A   Mostly Cloudy
7:15 PM 28.9 °F 21.9 °F 27.0 °F 92% 30.30 in 3.0 mi North 6.9 mph - N/A   Scattered Clouds
7:53 PM 28.0 °F 22.8 °F 26.1 °F 92% 30.32 in 4.0 mi North 4.6 mph - N/A   Clear
8:53 PM 28.0 °F 18.6 °F 25.0 °F 88% 30.35 in 3.0 mi ENE 10.4 mph - N/A   Clear
9:02 PM 28.0 °F 18.6 °F 26.1 °F 92% 30.32 in 3.0 mi ENE 10.4 mph - N/A   Partly Cloudy
9:11 PM 28.0 °F 19.3 °F 26.1 °F 92% 30.32 in 2.5 mi ENE 9.2 mph - N/A   Mostly Cloudy
9:27 PM 28.0 °F 19.3 °F 26.1 °F 92% 30.32 in 2.5 mi ENE 9.2 mph - N/A   Overcast
9:53 PM 28.9 °F 22.8 °F 27.0 °F 92% 30.35 in 2.5 mi ENE 5.8 mph - N/A   Overcast
10:38 PM 28.0 °F 21.7 °F 27.0 °F 96% 30.32 in 1.5 mi East 5.8 mph - N/A   Overcast
10:53 PM 28.0 °F 21.7 °F 27.0 °F 96% 30.35 in 1.8 mi East 5.8 mph - N/A   Overcast
11:33 PM 28.0 °F 22.8 °F 26.1 °F 92% 30.33 in 2.0 mi East 4.6 mph - N/A   Overcast
11:53 PM 28.0 °F 22.8 °F 27.0 °F 96% 30.35 in 1.8 mi East 4.6 mph - N/A   Overcast